Regional Weather Roundup
Issued by NWS

Home | Current Version | Previous Version | Graphics & Text | Print | Product List | Glossary On
Versions: 1 2 3 4 5 6 7 8 9 10 11 12 13 14 15 16 17 18 19 20 21 22 23 24 25 26 27 28 29 30 31 32 33 34 35 36 37 38 39 40 41 42 43 44 45 46 47 48 49 50
000
ASUS43 KTOP 222359
RWRKS

WEATHER ROUNDUP FOR KANSAS
NATIONAL WEATHER SERVICE GOODLAND KS
700 PM CDT WED MAR 22 2017

NOTE:  "FAIR" INDICATES FEW OR NO CLOUDS BELOW 12,000 FEET WITH NO
SIGNIFICANT WEATHER AND/OR OBSTRUCTIONS TO VISIBILITY.

KSZ001>006-013>018-027>032-041>047-230100-
NORTHWEST KANSAS

CITY           SKY/WX    TMP DP  RH WIND       PRES   REMARKS
GOODLAND       CLOUDY    57  39  51 SE25      29.92F
6HR MIN TEMP:  50; 6HR MAX TEMP:  61;

HAYS             N/A     53  36  52 SE16      30.05S
HILL CITY      CLOUDY    53  34  48 SE12      30.04F
6HR MIN TEMP:  49; 6HR MAX TEMP:  54;

RUSSELL        CLOUDY    53  34  48 SE18      30.05F
6HR MIN TEMP:  48; 6HR MAX TEMP:  56;

$$

KSZ061>065-074>080-084>089-230100-
SOUTHWEST KANSAS

CITY           SKY/WX    TMP DP  RH WIND       PRES   REMARKS
DODGE CITY     CLOUDY    57  38  48 SE18      30.01F
6HR MIN TEMP:  50; 6HR MAX TEMP:  63;

ELKHART          N/A     67  42  40 MISG        N/A
GARDEN CITY    CLOUDY    60  39  45 SE16      29.98S
6HR MIN TEMP:  51; 6HR MAX TEMP:  63;

GREAT BEND     CLOUDY    53  36  52 SE17      30.06F
LIBERAL        CLOUDY    66  43  42 SE21G26   29.98S
$$

KSZ066>073-081>083-090>101-230100-
SOUTHEAST KANSAS

CITY           SKY/WX    TMP DP  RH WIND       PRES   REMARKS
CHANUTE        CLOUDY    57  32  38 SE14      30.16S
6HR MIN TEMP:  56; 6HR MAX TEMP:  59;

COFFEYVILLE    CLOUDY    58  39  49 E10       30.15R
6HR MIN TEMP:  55; 6HR MAX TEMP:  60;

HUTCHINSON     CLOUDY    56  35  45 SE14      30.09F
6HR MIN TEMP:  54; 6HR MAX TEMP:  56;

MEDICINE LODGE   N/A     57  40  52 E8        30.07S
NEWTON         CLOUDY    54  33  45 E13       30.11F
PARSONS        CLOUDY    57  36  45 SE9       30.16S
6HR MIN TEMP:  55; 6HR MAX TEMP:  59;

WICHITA INTL   MOCLDY    57  39  51 E9        30.09F
6HR MIN TEMP:  53; 6HR MAX TEMP:  58;

WICHITA JABRA  CLOUDY    56  38  50 SE12G21   30.10F
6HR MIN TEMP:  52; 6HR MAX TEMP:  57;

WINFIELD       CLOUDY    60  43  53 E9        30.11S
6HR MIN TEMP:  55; 6HR MAX TEMP:  62;

$$

KSZ007>012-019>026-033>040-048>060-102>105-230100-
NORTHEAST KANSAS

CITY           SKY/WX    TMP DP  RH WIND       PRES   REMARKS
CONCORDIA      CLOUDY    54  26  34 SE22      30.10F
6HR MIN TEMP:  50; 6HR MAX TEMP:  55;

EMPORIA        CLOUDY    56  31  38 E14G23    30.15R
6HR MIN TEMP:  54; 6HR MAX TEMP:  57;

LAWRENCE       CLOUDY    55  29  36 E14       30.20S
6HR MIN TEMP:  54; 6HR MAX TEMP:  60;

MANHATTAN      CLOUDY    56  28  34 SE15      30.15F
6HR MIN TEMP:  54; 6HR MAX TEMP:  61;

OLATHE IND     CLOUDY    54  29  38 E9G20     30.21S
6HR MIN TEMP:  51; 6HR MAX TEMP:  57;

OLATHE EXE     CLOUDY    52  29  41 E14       30.19F
6HR MIN TEMP:  50; 6HR MAX TEMP:  56;

SALINA         CLOUDY    58  31  35 SE14      30.12F
6HR MIN TEMP:  55; 6HR MAX TEMP:  59;

TOPEKA BILLARD CLOUDY    56  30  37 E15       30.18S
6HR MIN TEMP:  53; 6HR MAX TEMP:  60;

TOPEKA FORBES  CLOUDY    57  28  33 SE12      30.17S
6HR MIN TEMP:  54; 6HR MAX TEMP:  60;

$$



USA.gov is the U.S. government's official web portal to all federal, state and local government web resources and services.